Location: Brahman Valley
(40.6513°N, 111.8855°W)
Time: 03:15:17
(UTC+00:00)

X-37B - Visible Passes

Search period start: 16 April 2021 00:00
Search period end: 26 April 2021 00:00
Orbit: 380 x 394 km, 45.0° (Epoch: 07 April)

Date Brightness Start Highest point End Pass type
(mag) Time Alt. Az. Time Alt. Az. Time Alt. Az.
16 Apr 0.6 11:17:21 47° SW 11:18:04 67° SSE 11:21:13 10° ENE visible
17 Apr 3.0 10:21:28 20° E 10:21:28 20° E 10:22:45 10° E visible
17 Apr 1.2 11:53:45 14° W 11:56:23 50° NNW 11:59:28 10° ENE visible
18 Apr 0.5 10:57:50 72° NW 10:57:57 74° NNW 11:01:08 10° ENE visible
19 Apr 3.4 10:01:53 17° ENE 10:01:53 17° ENE 10:02:45 10° ENE visible
19 Apr 1.7 11:34:09 16° WNW 11:36:21 39° N 11:39:23 10° ENE visible
20 Apr 1.4 10:38:12 47° N 10:38:12 47° N 10:41:01 10° ENE visible
20 Apr 1.9 12:11:54 10° WNW 12:14:53 35° N 12:17:51 10° ENE visible
21 Apr 3.9 09:42:15 13° ENE 09:42:15 13° ENE 09:42:39 10° ENE visible
21 Apr 1.9 11:14:31 18° WNW 11:16:22 35° N 11:19:21 10° ENE visible
22 Apr 2.3 10:18:35 34° NNE 10:18:35 34° NNE 10:20:55 10° ENE visible
22 Apr 1.8 11:51:51 10° WNW 11:54:54 41° N 11:57:56 10° E visible
23 Apr 2.0 10:54:57 23° NW 10:56:24 36° N 10:59:23 10° ENE visible
24 Apr 2.9 09:59:07 25° NE 09:59:07 25° NE 10:00:53 10° ENE visible
24 Apr 1.3 11:31:44 10° WNW 11:34:53 55° NNE 11:38:01 10° E visible
25 Apr 1.7 10:35:40 34° NNW 10:36:25 41° N 10:39:28 10° E visible
